Thomasville, PA

4:14 AM EST on February 21, 2017 (GMT -0500)
York

Weather History for KTHV - March, 2012

Change the Weather History Date:

Saturday, March 31, 2012

  Actual Average Record
Temperature  
Mean Temperature 44 °F -  
Max Temperature 46 °F 0 °F 84 °F (1998)
Min Temperature 42 °F - 26 °F (1999)
Degree Days  
Heating Degree Days 21    
Moisture  
Dew Point 42 °F    
Average Humidity 90    
Maximum Humidity 100    
Minimum Humidity 71    
Precipitation  
Precipitation 0.15 in - - ()
Sea Level Pressure  
Sea Level Pressure 29.84 in    
Wind  
Wind Speed 7 mph (ENE)    
Max Wind Speed 13 mph    
Max Gust Speed 25 mph    
Visibility 7 miles    
Events Rain , Thunderstorm    
Averages and records for this station are not official NWS values.
T = Trace of Precipitation, MM = Missing Value Source: NWS Daily Summary

Daily Weather History Graph

Daily Weather History Graph

Search for Another Location

Airport or City:

Trip Planner

Search our weather history database for the weather conditions in past years. The results will help you decide how hot, cold, wet, or windy it might be!

Date:

Astronomy

Mar. 31, 2012 Rise Set
Actual Time 6:52 AM EDT 7:31 PM EDT
Civil Twilight 6:25 AM EDT 7:58 PM EDT
Nautical Twilight 5:52 AM EDT 8:30 PM EDT
Astronomical Twilight 5:19 AM EDT 9:04 PM EDT
Moon 12:57 PM EDT (3/31) 2:47 AM EDT (3/31)
Length of Visible Light 13h 33m
Length of Day
12h 38m
First Quarter, 59% of the Moon is Illuminated
Mar 31
First Quarter
Apr 6
Full
Apr 13
Last Quarter
Apr 21
New
Apr 29
First Quarter

Hourly Weather History & Observations

Time (EDT) Temp. Windchill Dew Point Humidity Pressure Visibility Wind Dir Wind Speed Gust Speed Precip Events Conditions
12:03 AM 44.6 °F 40.2 °F 35.6 °F 71% 29.91 in 10.0 mi North 8.1 mph - N/A   Mostly Cloudy
12:53 AM 43.0 °F 37.2 °F 39.0 °F 86% 29.86 in 10.0 mi East 10.4 mph - 0.01 in Rain , Thunderstorm Light Rain
1:06 AM 44.6 °F - 37.4 °F 76% 29.89 in 10.0 mi Calm Calm - 0.00 in Rain , Thunderstorm Light Rain
1:33 AM 42.8 °F 38.6 °F 39.2 °F 87% 29.84 in 3.0 mi ESE 6.9 mph - 0.10 in Rain , Thunderstorm Heavy Thunderstorms and Rain
1:53 AM 43.0 °F 41.3 °F 41.0 °F 93% 29.87 in 7.0 mi SE 3.5 mph - 0.12 in Rain , Thunderstorm Light Thunderstorms and Rain
2:11 AM 42.8 °F 38.0 °F 42.8 °F 100% 29.84 in 8.0 mi SE 8.1 mph - 0.01 in Rain Light Rain
2:29 AM 42.8 °F 38.6 °F 42.8 °F 100% 29.83 in 8.0 mi SE 6.9 mph - 0.01 in   Overcast
2:53 AM 44.1 °F 39.5 °F 42.1 °F 93% 29.81 in 8.0 mi SE 8.1 mph - 0.01 in   Overcast
3:15 AM 44.6 °F 38.4 °F 42.8 °F 93% 29.76 in 7.0 mi SSE 12.7 mph 25.3 mph 0.01 in Rain Light Rain
3:31 AM 44.6 °F 42.2 °F 42.8 °F 93% 29.80 in 8.0 mi WNW 4.6 mph - 0.01 in   Overcast
3:53 AM 46.0 °F - 43.0 °F 89% 29.81 in 8.0 mi Calm Calm - 0.01 in   Overcast
4:53 AM 45.0 °F 41.8 °F 43.0 °F 93% 29.79 in 8.0 mi ESE 5.8 mph - N/A   Overcast
5:53 AM 44.1 °F 40.8 °F 42.1 °F 93% 29.78 in 8.0 mi East 5.8 mph - N/A   Overcast
6:53 AM 45.0 °F 41.8 °F 43.0 °F 93% 29.79 in 8.0 mi East 5.8 mph - N/A   Overcast
7:12 AM 44.6 °F 42.2 °F 42.8 °F 93% 29.78 in 6.0 mi East 4.6 mph - N/A   Overcast
7:36 AM 44.6 °F 40.7 °F 44.6 °F 100% 29.78 in 2.5 mi East 6.9 mph - N/A   Overcast
7:53 AM 44.1 °F 40.1 °F 44.1 °F 100% 29.79 in 2.0 mi ESE 6.9 mph - N/A   Overcast
8:19 AM 44.6 °F 40.7 °F 44.6 °F 100% 29.80 in 1.8 mi East 6.9 mph - N/A   Overcast
8:35 AM 44.6 °F 40.7 °F 42.8 °F 93% 29.80 in 1.5 mi ENE 6.9 mph - N/A   Overcast
8:53 AM 44.1 °F 39.5 °F 43.0 °F 96% 29.82 in 1.2 mi East 8.1 mph - N/A   Overcast
9:53 AM 44.1 °F 41.5 °F 43.0 °F 96% 29.84 in 1.8 mi East 4.6 mph - N/A   Overcast
10:53 AM 44.1 °F 40.1 °F 44.1 °F 100% 29.84 in 1.5 mi NE 6.9 mph - N/A   Overcast
11:37 AM 44.6 °F 40.7 °F 42.8 °F 93% 29.82 in 2.0 mi East 6.9 mph - N/A   Overcast
11:46 AM 44.6 °F 40.2 °F 42.8 °F 93% 29.82 in 3.0 mi NE 8.1 mph - N/A   Overcast
11:53 AM 44.1 °F 40.1 °F 43.0 °F 96% 29.84 in 3.0 mi ENE 6.9 mph - N/A   Overcast
12:00 PM 44.6 °F 41.4 °F 42.8 °F 93% 29.82 in 2.5 mi ENE 5.8 mph - N/A   Overcast
12:14 PM 44.6 °F 40.7 °F 42.8 °F 93% 29.83 in 4.0 mi NE 6.9 mph - N/A   Overcast
12:53 PM 45.0 °F 41.2 °F 43.0 °F 93% 29.85 in 7.0 mi ENE 6.9 mph - N/A   Overcast
1:12 PM 44.6 °F 40.2 °F 42.8 °F 93% 29.83 in 8.0 mi NE 8.1 mph - N/A   Overcast
1:53 PM 46.0 °F 42.5 °F 43.0 °F 89% 29.84 in 10.0 mi NE 6.9 mph - N/A   Overcast
2:08 PM 46.4 °F 42.4 °F 42.8 °F 87% 29.83 in 10.0 mi NE 8.1 mph - N/A   Overcast
2:53 PM 46.0 °F 42.5 °F 43.0 °F 89% 29.84 in 10.0 mi NE 6.9 mph - N/A   Overcast
3:53 PM 46.0 °F 42.5 °F 43.0 °F 89% 29.86 in 10.0 mi NNE 6.9 mph - N/A   Overcast
4:28 PM 46.4 °F 42.9 °F 42.8 °F 87% 29.85 in 10.0 mi NNE 6.9 mph - N/A   Overcast
4:53 PM 46.9 °F - 42.1 °F 83% 29.86 in 10.0 mi NE 5.8 mph - N/A   Overcast
5:11 PM 46.4 °F 42.4 °F 42.8 °F 87% 29.85 in 10.0 mi NE 8.1 mph - N/A   Overcast
5:53 PM 46.9 °F - 42.1 °F 83% 29.87 in 10.0 mi ENE 5.8 mph - N/A   Overcast
6:32 PM 46.4 °F 42.4 °F 42.8 °F 87% 29.86 in 9.0 mi NE 8.1 mph - N/A   Overcast
6:53 PM 46.0 °F 43.9 °F 41.0 °F 83% 29.88 in 9.0 mi ENE 4.6 mph - N/A   Overcast
7:53 PM 45.0 °F 41.2 °F 39.9 °F 82% 29.89 in 10.0 mi ENE 6.9 mph - N/A   Overcast
8:23 PM 44.6 °F 42.2 °F 39.2 °F 81% 29.88 in 10.0 mi NE 4.6 mph - N/A   Overcast
8:53 PM 45.0 °F 42.6 °F 39.9 °F 82% 29.91 in 10.0 mi NE 4.6 mph - N/A   Overcast
9:53 PM 44.1 °F 40.8 °F 39.9 °F 85% 29.93 in 9.0 mi East 5.8 mph - N/A   Overcast
10:53 PM 44.1 °F 41.5 °F 39.9 °F 85% 29.92 in 8.0 mi East 4.6 mph - N/A   Overcast
11:53 PM 43.0 °F 40.3 °F 39.9 °F 89% 29.92 in 7.0 mi East 4.6 mph - N/A   Overcast